シュワルツ彗星

C/2014 B1 ( Schwartz )

English version
Home page
Updated on May 22, 2017

---------------------------------------------------------------------

・ プロフィール

発見日 2014年1月28日
発見光度 19.9等
発見者 Michael Schwartz (Tenagra Observatory near Nogales, AZ, U.S.A.)

・ 写真集

・ 軌道要素

Epoch 2017 Sept. 4.0 TT = JDT 2458000.5
T 2017 Sept. 10.53583 TT                                MPCW
q   9.5565914            (2000.0)            P               Q
z  -0.0003932      Peri.  345.84180     -0.85029360     -0.50400107
 +/-0.0000008      Node   161.39559     +0.51719085     -0.85353288
e   1.0037572      Incl.   28.37231     +0.09754194     +0.13215350
From 500 observations 2014 Jan. 28-2017 Apr. 30, mean residual 0".4.

・ 光度変化

        m1 = -8.5 + 5 logΔ + 20.0 log r

---------------------------------------------------------------------

軌道要素はM.P.E.C. 2017-J52に掲載されたものです。
光度グラフはComet for Windowsで作成したものです。

---------------------------------------------------------------------

Copyright(C) Seiichi Yoshida (comet@aerith.net). All rights reserved.